Home   Weather   Avebury   Past weeks
Flag for United Kingdom

Past Weather in Avebury, England, United Kingdom — Yesterday and Last 2 Weeks

Now
43 °F

Passing clouds.


Feels Like: 40 °F
Forecast: 52 / 43 °F
Wind: 5 mph from North

Location: Brize Norton

Current Time: Oct 20, 2019 at 7:28:42 am

Latest Report: Oct 20, 2019 at 6:50 am


Visibility: N/A

Pressure: 29.77 "Hg

Humidity: 93%

Dew Point: 41 °F

Location of AveburyLocation

Past Weather in Avebury — Graph

°F

Avebury Temperature Yesterday

Maximum temperature yesterday: 57 °F (at 12:20 pm)
Minimum temperature yesterday: 41 °F (at 10:50 pm)
Average temperature yesterday: 50 °F

High & Low Weather Summary for the Past Weeks

 TemperatureHumidityPressure
High63 °F (Oct 6, 2:20 pm)100% (Oct 5, 11:21 pm)30.04 "Hg (Oct 5, 11:21 pm)
Low37 °F (Oct 17, 3:50 am)51% (Oct 16, 3:50 pm)29.42 "Hg (Oct 18, 4:20 am)
Average53 °F87%29.69 "Hg
* Reported Oct 5 6:20 am — Oct 20 6:20 am, Avebury. Weather by CustomWeather, © 2019

Note: Actual official high and low records may vary slightly from our data, if they occured in-between our weather recording intervals... More about our weather records

Advertising

Avebury Weather History for the Previous 24 Hours

Scroll right to see more
 ConditionsComfort  
Time TempWeatherWind HumidityBarometerVisibility
6:20 am
Sun, Oct 20
43 °FPassing clouds.5 mph93%29.77 "HgN/A
5:50 am43 °FPassing clouds.5 mph93%29.77 "HgN/A
5:20 am45 °FClear.7 mph87%29.77 "Hg10 mi
4:50 am45 °FClear.6 mph93%29.74 "Hg10 mi
4:20 am45 °FPassing clouds.2 mph100%29.74 "HgN/A
3:50 am43 °FPassing clouds.1 mph93%29.74 "HgN/A
3:20 am43 °FClear.2 mph100%29.71 "Hg10 mi
2:50 am43 °FPassing clouds.3 mph93%29.71 "HgN/A
2:20 am43 °FPassing clouds.2 mph93%29.71 "HgN/A
1:50 am41 °FPassing clouds.2 mph100%29.71 "HgN/A
1:20 am41 °FPassing clouds.2 mph93%29.71 "HgN/A
12:50 am41 °FClear.3 mph100%29.71 "Hg10 mi
12:20 am41 °FClear.3 mph93%29.71 "Hg10 mi
11:50 pm
Sat, Oct 19
41 °FClear.1 mph100%29.68 "Hg10 mi
11:20 pm41 °FClear.1 mph93%29.68 "Hg10 mi
10:50 pm41 °FClear.2 mph100%29.68 "Hg10 mi
10:20 pm43 °FClear.1 mph93%29.65 "Hg10 mi
9:20 pm45 °FClear.1 mph87%29.65 "Hg10 mi
8:50 pm46 °FClear.1 mph87%29.62 "Hg10 mi
8:20 pm46 °FClear.2 mph87%29.62 "Hg10 mi
7:50 pm46 °FClear.2 mph87%29.62 "Hg10 mi
6:50 pm50 °FClear.2 mph82%29.59 "Hg10 mi
6:20 pm52 °FPassing clouds.5 mph77%29.59 "HgN/A
5:50 pm54 °FPassing clouds.5 mph72%29.59 "HgN/A
5:20 pm55 °FPassing clouds.5 mph67%29.56 "HgN/A
4:50 pm55 °FPassing clouds.3 mph67%29.56 "HgN/A
4:20 pm54 °FPassing clouds.5 mph72%29.56 "HgN/A
3:50 pm55 °FPassing clouds.7 mph67%29.56 "HgN/A
3:20 pm55 °FScattered clouds.8 mph67%29.53 "HgN/A
2:50 pm57 °FScattered clouds.7 mph63%29.53 "HgN/A
2:20 pm55 °FScattered clouds.7 mph72%29.53 "HgN/A
1:50 pm55 °FScattered clouds.7 mph67%29.53 "HgN/A
1:20 pm54 °FPassing clouds.7 mph72%29.53 "HgN/A
12:50 pm55 °FPassing clouds.6 mph72%29.50 "HgN/A
12:20 pm57 °FPassing clouds.8 mph67%29.50 "HgN/A
11:50 am54 °FPassing clouds.6 mph77%29.50 "HgN/A
11:20 am55 °FPassing clouds.7 mph77%29.50 "HgN/A
10:50 am54 °FPassing clouds.7 mph77%29.50 "HgN/A
10:20 am52 °FPassing clouds.7 mph82%29.50 "HgN/A
9:50 am50 °FPassing clouds.7 mph88%29.47 "HgN/A
9:20 am50 °FPassing clouds.7 mph88%29.47 "HgN/A
8:50 am48 °FPassing clouds.6 mph94%29.47 "HgN/A
8:20 am46 °FPassing clouds.3 mph93%29.47 "HgN/A
7:50 am46 °FPassing clouds.3 mph93%29.47 "HgN/A
Weather by CustomWeather, © 2019

See weather overview